Location: ?????
(55.6500°N, 37.2500°E)
Time: 02:55:13
(UTC+00:00)

ATLAS 3B R/B - Pass Details

Date: 19 May 2025
Orbit: 935 x 1258 km, 63.8° (Epoch: 14 June)

Event Time Altitude Azimuth Distance (km) Brightness Sun altitude
Rises 23:18:20 0° 256° (WSW) 4,082 5.4 -10.8°
Reaches altitude 10° 23:21:06 10° 261° (W) 3,156 4.8 -10.6°
Maximum altitude 23:28:38 57° 339° (NNW) 1,455 3.7 -10.1°
Drops below altitude 10° 23:36:26 10° 57° (ENE) 3,249 6.3 -9.6°
Sets 23:39:20 0° 62° (ENE) 4,210 6.9 -9.4°
